| time (UTC) | temp C | wind direction | speed KPH | gust KPH | rain 1hr cm | rain 24hr cm | rain mn cm | humidity % | barometer mb |
| 20260901160216 | 19 | 0 | 0.0 | 0.0 | 360.98 | 0.00 | 0.38 | 95 | 1018.4 |
| 20260901155714 | 20 | 0 | 0.0 | 0.0 | 360.98 | 0.00 | 0.38 | 95 | 1018.2 |
| 20260901155214 | 20 | 48 | 0.0 | 1.6 | 360.98 | 0.00 | 0.38 | 95 | 1018.2 |
| 20260901154722 | 20 | 53 | 0.0 | 1.6 | 360.98 | 0.00 | 0.38 | 95 | 1018.2 |
| 20260901154214 | 20 | 0 | 0.0 | 0.0 | 360.98 | 0.00 | 0.38 | 95 | 1018.2 |
| 20260901153215 | 20 | 53 | 0.0 | 3.2 | 360.98 | 0.00 | 0.38 | 96 | 1018.1 |
| 20260901152714 | 20 | 53 | 1.6 | 3.2 | 360.98 | 0.00 | 0.38 | 96 | 1018.1 |
| 20260901152214 | 20 | 0 | 0.0 | 0.0 | 360.98 | 0.00 | 0.38 | 96 | 1018.1 |
| 20260901151715 | 20 | 0 | 0.0 | 0.0 | 360.98 | 0.00 | 0.38 | 96 | 1018.1 |
| 20260901151214 | 20 | 60 | 0.0 | 3.2 | 360.98 | 0.00 | 0.38 | 96 | 1018.2 |
| 20260901150215 | 20 | 0 | 0.0 | 0.0 | 360.98 | 0.00 | 0.38 | 96 | 1018.2 |
| 20260901145714 | 20 | 0 | 0.0 | 0.0 | 360.98 | 0.00 | 0.38 | 96 | 1018.3 |
| 20260901145214 | 20 | 113 | 0.0 | 3.2 | 360.98 | 0.00 | 0.38 | 97 | 1018.3 |
| 20260901144718 | 20 | 0 | 0.0 | 0.0 | 360.98 | 0.00 | 0.38 | 97 | 1018.2 |
| 20260901144214 | 20 | 0 | 0.0 | 0.0 | 360.98 | 0.00 | 0.38 | 97 | 1018.1 |
| 20260901143214 | 20 | 0 | 0.0 | 0.0 | 360.98 | 0.00 | 0.38 | 97 | 1018.2 |
| 20260901142214 | 20 | 0 | 0.0 | 0.0 | 360.98 | 0.00 | 0.38 | 97 | 1018.3 |
| 20260901141715 | 19 | 0 | 0.0 | 0.0 | 360.98 | 0.00 | 0.38 | 97 | 1018.4 |
| 20260901141214 | 19 | 0 | 0.0 | 0.0 | 360.98 | 0.00 | 0.38 | 97 | 1018.3 |
| 20260901140715 | 19 | 118 | 0.0 | 0.0 | 360.98 | 0.00 | 0.38 | 97 | 1018.3 |
| 20260901140215 | 19 | 169 | 0.0 | 1.6 | 360.98 | 0.00 | 0.38 | 97 | 1018.3 |
| 20260901135714 | 19 | 165 | 0.0 | 3.2 | 360.98 | 0.00 | 0.38 | 97 | 1018.2 |
| 20260901135214 | 19 | 0 | 0.0 | 0.0 | 360.98 | 0.00 | 0.38 | 97 | 1018.2 |
| 20260901134714 | 19 | 0 | 0.0 | 0.0 | 360.98 | 0.00 | 0.38 | 97 | 1018.4 |
| 20260901134214 | 18 | 98 | 0.0 | 3.2 | 360.98 | 0.00 | 0.38 | 97 | 1018.4 |
| 20260901133217 | 18 | 0 | 0.0 | 0.0 | 360.98 | 0.00 | 0.38 | 97 | 1018.5 |
| 20260901132714 | 18 | 0 | 0.0 | 0.0 | 360.98 | 0.00 | 0.38 | 97 | 1018.6 |
| 20260901132214 | 18 | 0 | 0.0 | 0.0 | 360.98 | 0.00 | 0.38 | 97 | 1018.5 |
| 20260901131717 | 18 | 0 | 0.0 | 0.0 | 360.98 | 0.00 | 0.38 | 97 | 1018.6 |
| 20260901131214 | 18 | 0 | 0.0 | 0.0 | 360.98 | 0.00 | 0.38 | 97 | 1018.7 |
| 20260901130715 | 18 | 0 | 0.0 | 0.0 | 360.98 | 0.00 | 0.38 | 97 | 1018.8 |
| 20260901130214 | 18 | 0 | 0.0 | 0.0 | 360.98 | 0.00 | 0.38 | 97 | 1018.7 |
| 20260901125714 | 18 | 0 | 0.0 | 0.0 | 360.98 | 0.00 | 0.38 | 97 | 1018.8 |
| 20260901124721 | 18 | 0 | 0.0 | 0.0 | 360.96 | 0.00 | 0.36 | 96 | 1018.5 |
| 20260901124214 | 18 | 0 | 0.0 | 0.0 | 360.93 | 0.00 | 0.33 | 96 | 1018.5 |
| 20260901122715 | 18 | 0 | 0.0 | 0.0 | 360.88 | 0.00 | 0.28 | 96 | 1018.6 |
| 20260901122214 | 18 | 0 | 0.0 | 0.0 | 360.83 | 0.00 | 0.23 | 96 | 1018.7 |
| 20260901121715 | 18 | 0 | 0.0 | 0.0 | 360.78 | 0.00 | 0.18 | 96 | 1018.8 |
| 20260901121213 | 18 | 0 | 0.0 | 0.0 | 360.76 | 0.00 | 0.15 | 96 | 1018.8 |
| 20260901120217 | 18 | 0 | 0.0 | 0.0 | 360.71 | 0.00 | 0.10 | 96 | 1018.7 |
| 20260901115215 | 18 | 0 | 0.0 | 0.0 | 360.68 | 0.00 | 0.08 | 96 | 1018.6 |
| 20260901114715 | 18 | 0 | 0.0 | 0.0 | 360.68 | 0.00 | 0.08 | 96 | 1018.6 |
| 20260901114214 | 18 | 0 | 0.0 | 0.0 | 360.68 | 0.00 | 0.08 | 96 | 1018.7 |
| 20260901113715 | 18 | 262 | 0.0 | 4.8 | 360.68 | 0.00 | 0.08 | 96 | 1018.7 |
| 20260901113214 | 18 | 0 | 1.6 | 0.0 | 360.68 | 0.00 | 0.08 | 96 | 1018.7 |
| 20260901112213 | 18 | 0 | 0.0 | 0.0 | 360.68 | 0.00 | 0.08 | 95 | 1018.6 |
| 20260901111715 | 18 | 0 | 0.0 | 0.0 | 360.68 | 0.00 | 0.08 | 95 | 1018.6 |
| 20260901111213 | 18 | 0 | 0.0 | 0.0 | 360.68 | 0.00 | 0.08 | 95 | 1018.6 |
| 20260901110219 | 18 | 0 | 0.0 | 0.0 | 360.68 | 0.00 | 0.08 | 95 | 1018.5 |
| 20260901104715 | 18 | 0 | 0.0 | 0.0 | 360.68 | 0.00 | 0.08 | 94 | 1018.3 |
| 20260901104213 | 18 | 0 | 0.0 | 0.0 | 360.68 | 0.00 | 0.08 | 94 | 1018.3 |
| 20260901103214 | 18 | 0 | 0.0 | 0.0 | 360.68 | 0.00 | 0.08 | 93 | 1018.1 |
| 20260901101715 | 18 | 0 | 0.0 | 0.0 | 360.65 | 0.00 | 0.05 | 93 | 1018.0 |
| 20260901100217 | 18 | 0 | 0.0 | 0.0 | 360.63 | 0.00 | 0.03 | 90 | 1018.0 |
| 20260901094721 | 18 | 0 | 0.0 | 0.0 | 360.60 | 0.00 | 0.00 | 88 | 1017.9 |
| 20260901093218 | 18 | 315 | 0.0 | 3.2 | 360.60 | 0.00 | 0.00 | 86 | 1017.9 |
| 20260901092214 | 18 | 259 | 0.0 | 3.2 | 360.60 | 0.00 | 0.00 | 85 | 1017.9 |
| 20260901091727 | 18 | 218 | 0.0 | 4.8 | 360.60 | 0.00 | 0.00 | 84 | 1017.8 |
| 20260901091213 | 18 | 0 | 0.0 | 0.0 | 360.60 | 0.00 | 0.00 | 84 | 1017.8 |
| 20260901090713 | 18 | 0 | 0.0 | 0.0 | 360.60 | 0.00 | 0.00 | 84 | 1017.8 |
| 20260901090217 | 18 | 0 | 0.0 | 0.0 | 360.60 | 0.00 | 0.00 | 84 | 1017.8 |
| 20260901085714 | 18 | 0 | 0.0 | 0.0 | 360.60 | 0.00 | 0.00 | 83 | 1017.8 |
| 20260901085213 | 18 | 0 | 0.0 | 0.0 | 360.60 | 0.00 | 0.00 | 83 | 1017.8 |
| 20260901084722 | 18 | 0 | 0.0 | 0.0 | 360.60 | 0.00 | 0.00 | 83 | 1017.8 |
| 20260901083214 | 18 | 0 | 0.0 | 0.0 | 360.60 | 0.00 | 0.00 | 83 | 1017.7 |
| 20260901081714 | 18 | 194 | 0.0 | 3.2 | 360.60 | 0.00 | 0.00 | 84 | 1017.8 |
| 20260901081214 | 18 | 212 | 1.6 | 4.8 | 360.60 | 0.00 | 0.00 | 84 | 1017.8 |
| 20260901080214 | 18 | 184 | 0.0 | 4.8 | 360.60 | 0.00 | 0.00 | 85 | 1017.8 |
| 20260901075213 | 19 | 0 | 0.0 | 0.0 | 360.60 | 0.00 | 0.00 | 85 | 1017.8 |
| 20260901074714 | 19 | 0 | 0.0 | 0.0 | 360.60 | 0.00 | 0.00 | 84 | 1017.8 |
| 20260901073217 | 19 | 0 | 0.0 | 0.0 | 360.60 | 0.00 | 0.00 | 84 | 1018.1 |
| 20260901072213 | 19 | 0 | 0.0 | 0.0 | 360.60 | 0.00 | 0.00 | 84 | 1018.3 |
| 20260901071715 | 19 | 0 | 0.0 | 0.0 | 360.60 | 0.00 | 0.00 | 83 | 1018.3 |
| 20260901071213 | 19 | 0 | 0.0 | 0.0 | 360.60 | 0.00 | 0.00 | 83 | 1018.2 |
| 20260901070714 | 19 | 0 | 0.0 | 0.0 | 360.60 | 0.00 | 0.00 | 84 | 1018.3 |
| 20260901070216 | 19 | 0 | 0.0 | 0.0 | 360.60 | 0.00 | 0.00 | 84 | 1018.4 |
| 20260901065213 | 19 | 0 | 0.0 | 0.0 | 360.60 | 0.00 | 0.00 | 83 | 1018.4 |
| 20260901064718 | 19 | 0 | 0.0 | 0.0 | 360.60 | 0.00 | 0.00 | 83 | 1018.4 |
| 20260901064213 | 19 | 0 | 0.0 | 0.0 | 360.60 | 0.00 | 0.00 | 83 | 1018.4 |
| 20260901063218 | 19 | 0 | 0.0 | 0.0 | 360.60 | 0.00 | 0.00 | 83 | 1018.4 |
| 20260901062213 | 19 | 0 | 0.0 | 0.0 | 360.60 | 0.00 | 0.00 | 83 | 1018.4 |
| 20260901061721 | 19 | 236 | 0.0 | 3.2 | 360.60 | 0.00 | 0.00 | 82 | 1018.4 |
| 20260901060219 | 20 | 0 | 0.0 | 0.0 | 360.60 | 0.00 | 0.00 | 83 | 1018.5 |
| 20260901055213 | 20 | 0 | 0.0 | 0.0 | 360.60 | 0.00 | 0.00 | 82 | 1018.6 |
| 20260901054718 | 20 | 210 | 0.0 | 0.0 | 360.60 | 0.00 | 0.00 | 82 | 1018.6 |
| 20260901054216 | 20 | 210 | 0.0 | 0.0 | 360.60 | 0.00 | 0.00 | 82 | 1018.5 |
| 20260901053214 | 20 | 238 | 0.0 | 3.2 | 360.60 | 0.00 | 0.00 | 82 | 1018.5 |
| 20260901052213 | 20 | 239 | 1.6 | 3.2 | 360.60 | 0.00 | 0.00 | 82 | 1018.6 |
| 20260901051717 | 20 | 232 | 0.0 | 1.6 | 360.60 | 0.00 | 0.00 | 82 | 1018.6 |
| 20260901050214 | 20 | 0 | 0.0 | 0.0 | 360.60 | 0.00 | 0.00 | 81 | 1018.5 |
| 20260901044718 | 20 | 0 | 0.0 | 0.0 | 360.60 | 0.00 | 0.00 | 81 | 1018.5 |
| 20260901044214 | 20 | 312 | 0.0 | 1.6 | 360.60 | 0.00 | 0.00 | 81 | 1018.5 |
| 20260901043218 | 19 | 0 | 0.0 | 0.0 | 360.60 | 0.00 | 0.00 | 82 | 1018.5 |
| 20260901042213 | 19 | 0 | 0.0 | 0.0 | 360.60 | 0.00 | 0.00 | 82 | 1018.6 |
| 20260901041716 | 19 | 273 | 0.0 | 4.8 | 360.60 | 0.00 | 0.00 | 83 | 1018.5 |
| 20260901041213 | 19 | 290 | 1.6 | 3.2 | 360.60 | 0.00 | 0.00 | 83 | 1018.5 |
| 20260901040217 | 19 | 235 | 0.0 | 1.6 | 360.60 | 0.00 | 0.00 | 83 | 1018.5 |
| 20260901034716 | 19 | 291 | 0.0 | 3.2 | 360.60 | 0.00 | 0.00 | 84 | 1018.5 |
| 20260901034213 | 19 | 287 | 0.0 | 1.6 | 360.60 | 0.00 | 0.00 | 84 | 1018.6 |
| 20260901031717 | 19 | 278 | 0.0 | 1.6 | 360.60 | 0.00 | 0.00 | 84 | 1018.6 |
| 20260901031213 | 19 | 288 | 1.6 | 3.2 | 360.60 | 0.00 | 0.00 | 84 | 1018.6 |
| 20260901030213 | 19 | 0 | 0.0 | 0.0 | 360.60 | 0.00 | 0.00 | 83 | 1018.6 |
| 20260901024714 | 19 | 0 | 0.0 | 0.0 | 360.60 | 0.00 | 0.00 | 83 | 1018.5 |
| 20260901024213 | 19 | 0 | 0.0 | 0.0 | 360.60 | 0.00 | 0.00 | 83 | 1018.5 |
| 20260901023213 | 19 | 277 | 1.6 | 1.6 | 360.60 | 0.00 | 0.00 | 83 | 1018.5 |
| 20260901021714 | 19 | 0 | 0.0 | 0.0 | 360.60 | 0.00 | 0.00 | 81 | 1018.5 |
| 20260901021213 | 19 | 0 | 0.0 | 0.0 | 360.60 | 0.00 | 0.00 | 81 | 1018.4 |
| 20260901020713 | 19 | 0 | 0.0 | 0.0 | 360.60 | 0.00 | 0.00 | 81 | 1018.4 |
| 20260901020213 | 20 | 0 | 0.0 | 0.0 | 360.60 | 0.00 | 0.00 | 81 | 1018.4 |
| 20260901014715 | 20 | 0 | 0.0 | 0.0 | 360.60 | 0.00 | 0.00 | 80 | 1018.5 |
| 20260901014213 | 20 | 0 | 0.0 | 0.0 | 360.60 | 0.00 | 0.00 | 80 | 1018.5 |
| 20260901013213 | 20 | 274 | 0.0 | 3.2 | 360.60 | 0.00 | 0.00 | 80 | 1018.6 |
| 20260901012213 | 20 | 0 | 0.0 | 0.0 | 360.60 | 0.00 | 0.00 | 80 | 1018.7 |
| 20260901011714 | 20 | 0 | 0.0 | 0.0 | 360.60 | 0.00 | 0.00 | 80 | 1018.8 |
| 20260901011213 | 20 | 0 | 0.0 | 0.0 | 360.60 | 0.00 | 0.00 | 80 | 1018.8 |
| 20260901010213 | 20 | 0 | 0.0 | 0.0 | 360.60 | 0.00 | 0.00 | 80 | 1018.9 |
| 20260901005213 | 20 | 0 | 0.0 | 0.0 | 360.60 | 0.00 | 0.00 | 80 | 1018.8 |
| 20260901004721 | 20 | 0 | 0.0 | 0.0 | 360.60 | 0.00 | 0.00 | 80 | 1018.8 |
| 20260901004213 | 20 | 0 | 0.0 | 0.0 | 360.60 | 0.00 | 0.00 | 80 | 1018.7 |
| 20260901003213 | 20 | 298 | 0.0 | 3.2 | 360.60 | 0.00 | 0.00 | 79 | 1018.7 |
| 20260901002713 | 20 | 308 | 1.6 | 3.2 | 360.60 | 0.00 | 0.00 | 78 | 1018.6 |
| 20260901002212 | 20 | 0 | 0.0 | 0.0 | 360.60 | 0.00 | 0.00 | 77 | 1018.6 |
| 20260901001714 | 20 | 0 | 0.0 | 0.0 | 360.60 | 0.00 | 0.00 | 77 | 1018.6 |
| 20260901001213 | 20 | 0 | 0.0 | 0.0 | 360.60 | 0.00 | 0.00 | 76 | 1018.6 |
| 20260901000213 | 20 | 0 | 0.0 | 0.0 | 360.60 | 0.00 | 0.00 | 75 | 1018.6 |
| 20260831235712 | 20 | 0 | 0.0 | 0.0 | 360.60 | 0.00 | 0.00 | 75 | 1018.6 |
| 20260831235212 | 20 | 0 | 0.0 | 0.0 | 360.60 | 0.00 | 0.00 | 75 | 1018.5 |
| 20260831234714 | 20 | 0 | 0.0 | 0.0 | 360.60 | 0.00 | 0.00 | 74 | 1018.5 |
| 20260831234212 | 20 | 274 | 0.0 | 1.6 | 360.60 | 0.00 | 0.00 | 74 | 1018.6 |
| 20260831233213 | 20 | 290 | 1.6 | 3.2 | 360.60 | 0.00 | 0.00 | 74 | 1018.8 |
| 20260831232212 | 21 | 277 | 1.6 | 3.2 | 360.60 | 0.00 | 0.00 | 73 | 1018.9 |
| 20260831231714 | 21 | 285 | 1.6 | 3.2 | 360.60 | 0.00 | 0.00 | 73 | 1018.8 |
| 20260831231212 | 21 | 284 | 0.0 | 0.0 | 360.60 | 0.00 | 0.00 | 71 | 1018.9 |
| 20260831230213 | 21 | 0 | 0.0 | 0.0 | 360.60 | 0.00 | 0.00 | 69 | 1019.0 |
| 20260831225212 | 22 | 262 | 0.0 | 0.0 | 360.60 | 0.00 | 0.00 | 67 | 1019.1 |
| 20260831224717 | 22 | 0 | 0.0 | 0.0 | 360.60 | 0.00 | 0.00 | 66 | 1019.0 |
| 20260831223213 | 23 | 0 | 0.0 | 0.0 | 360.60 | 0.00 | 0.00 | 62 | 1019.0 |
| 20260831221212 | 25 | 308 | 0.0 | 8.0 | 360.60 | 0.00 | 0.00 | 57 | 1019.0 |
| 20260831220213 | 25 | 163 | 3.2 | 6.4 | 360.60 | 0.00 | 0.00 | 57 | 1019.0 |
| 20260831215212 | 25 | 221 | 1.6 | 9.7 | 360.60 | 0.00 | 0.00 | 56 | 1019.0 |
| 20260831214717 | 25 | 314 | 4.8 | 6.4 | 360.60 | 0.00 | 0.00 | 55 | 1018.9 |
| 20260831213213 | 25 | 160 | 4.8 | 9.7 | 360.60 | 0.00 | 0.00 | 55 | 1018.9 |
| 20260831212212 | 24 | 207 | 4.8 | 11.3 | 360.60 | 0.00 | 0.00 | 57 | 1019.0 |
| 20260831211714 | 24 | 207 | 3.2 | 8.0 | 360.60 | 0.00 | 0.00 | 57 | 1019.0 |
| 20260831211212 | 24 | 187 | 6.4 | 9.7 | 360.60 | 0.00 | 0.00 | 57 | 1019.2 |
| 20260831210213 | 24 | 205 | 6.4 | 9.7 | 360.60 | 0.00 | 0.00 | 59 | 1019.1 |
| 20260831205212 | 24 | 233 | 0.0 | 6.4 | 360.60 | 0.00 | 0.00 | 58 | 1019.2 |
| 20260831204716 | 25 | 162 | 4.8 | 8.0 | 360.60 | 0.00 | 0.00 | 57 | 1019.3 |
| 20260831204212 | 25 | 183 | 1.6 | 8.0 | 360.60 | 0.00 | 0.00 | 57 | 1019.3 |
| 20260831203712 | 25 | 218 | 0.0 | 6.4 | 360.60 | 0.00 | 0.00 | 55 | 1019.3 |
| 20260831203213 | 25 | 284 | 1.6 | 6.4 | 360.60 | 0.00 | 0.00 | 53 | 1019.3 |
| 20260831201717 | 26 | 217 | 0.0 | 6.4 | 360.60 | 0.00 | 0.00 | 49 | 1019.3 |
| 20260831201212 | 26 | 304 | 3.2 | 11.3 | 360.60 | 0.00 | 0.00 | 46 | 1019.2 |
| 20260831200213 | 26 | 148 | 3.2 | 20.9 | 360.60 | 0.00 | 0.00 | 47 | 1019.1 |
| 20260831195212 | 26 | 309 | 3.2 | 11.3 | 360.60 | 0.00 | 0.00 | 48 | 1019.3 |
| 20260831193213 | 26 | 214 | 4.8 | 9.7 | 360.60 | 0.00 | 0.00 | 44 | 1019.5 |
| 20260831192212 | 26 | 142 | 9.7 | 11.3 | 360.60 | 0.00 | 0.00 | 45 | 1019.5 |
| 20260831191212 | 25 | 215 | 8.0 | 16.1 | 360.60 | 0.00 | 0.00 | 48 | 1019.7 |
| 20260831190213 | 25 | 217 | 3.2 | 6.4 | 360.60 | 0.00 | 0.00 | 49 | 1020.0 |
| 20260831185212 | 25 | 200 | 4.8 | 8.0 | 360.60 | 0.00 | 0.00 | 49 | 1019.9 |
| 20260831183217 | 26 | 190 | 1.6 | 8.0 | 360.60 | 0.00 | 0.00 | 49 | 1019.9 |
| 20260831181212 | 25 | 181 | 6.4 | 8.0 | 360.60 | 0.00 | 0.00 | 49 | 1020.2 |
| 20260831180213 | 25 | 288 | 4.8 | 12.9 | 360.60 | 0.00 | 0.00 | 46 | 1020.3 |
| 20260831174212 | 25 | 283 | 6.4 | 11.3 | 360.60 | 0.00 | 0.00 | 44 | 1020.3 |
| 20260831173212 | 25 | 293 | 4.8 | 6.4 | 360.60 | 0.00 | 0.00 | 46 | 1020.3 |
| 20260831171712 | 25 | 278 | 4.8 | 8.0 | 360.60 | 0.00 | 0.00 | 48 | 1020.8 |
| 20260831170212 | 24 | 145 | 3.2 | 4.8 | 360.60 | 0.00 | 0.00 | 52 | 1020.8 |
| 20260831165712 | 24 | 55 | 1.6 | 4.8 | 360.60 | 0.00 | 0.00 | 51 | 1020.9 |
| 20260831165212 | 23 | 25 | 3.2 | 8.0 | 360.60 | 0.00 | 0.00 | 47 | 1020.9 |
| 20260831164212 | 23 | 0 | 1.6 | 0.0 | 360.60 | 0.00 | 0.00 | 50 | 1021.0 |
| 20260831163712 | 23 | 7 | 0.0 | 3.2 | 360.60 | 0.00 | 0.00 | 49 | 1021.1 |
| 20260831163212 | 23 | 290 | 0.0 | 3.2 | 360.60 | 0.00 | 0.00 | 52 | 1021.1 |
| 20260831162712 | 23 | 45 | 0.0 | 1.6 | 360.60 | 0.00 | 0.00 | 49 | 1021.1 |
| 20260831162212 | 23 | 311 | 0.0 | 6.4 | 360.60 | 0.00 | 0.00 | 47 | 1021.2 |
| 20260831161212 | 23 | 48 | 0.0 | 4.8 | 360.60 | 0.00 | 0.00 | 49 | 1021.2 |